This demonstration page uses our WeatherBlox Daily Observations layout. Learn more.

Left ArrowRight Arrow

39.01783, -85.05884

Hourly Observations for March 20, 2021

Temp ( °F °C ) Dew Point ( °F °C ) Humidity (%) Winds ( mph kmh ) Pressure ( in mb ) Visibility ( mi km ) Precip ( " mm )
12:52 am 00:52 Clear 37 2.8 23 -5 57 57 NNE 8 13 30.47 1032 10 16 0.00 0.00
1:52 am 01:52 Clear 36 2.2 23 -5 59 59 NE 12 19 30.46 1032 10 16 0.00 0.00
3:52 am 03:52 Clear 33 0.6 23 -5 66 66 NE 8 13 30.48 1032 10 16 0.00 0.00
4:52 am 04:52 Clear 32 0 22 -5.6 66 66 NE 9 15 30.48 1032 10 16 0.00 0.00
5:52 am 05:52 Clear 32 0 22 -5.6 66 66 NE 9 15 30.49 1032 10 16 0.00 0.00
6:52 am 06:52 Clear 31 -0.6 21 -6.1 67 67 NE 7 11 30.50 1033 10 16 0.00 0.00
7:52 am 07:52 Sunny 31 -0.6 21 -6.1 67 67 NE 7 11 30.52 1033 10 16 0.00 0.00
8:52 am 08:52 Sunny 34 1.1 22 -5.6 61 61 NE 8 13 30.54 1034 10 16 0.00 0.00
9:52 am 09:52 Sunny 37 2.8 22 -5.6 54 54 ENE 8 13 30.53 1034 10 16 0.00 0.00
10:52 am 10:52 Sunny 43 6.1 22 -5.6 43 43 VRB 3 6 30.54 1034 10 16 0.00 0.00
11:52 am 11:52 Sunny 48 8.9 24 -4.4 39 39 SE 6 9 30.53 1034 10 16 0.00 0.00
12:52 pm 12:52 Sunny 52 11.1 24 -4.4 34 34 Calm 30.52 1033 10 16 0.00 0.00
1:52 pm 13:52 Sunny 55 12.8 22 -5.6 28 28 VRB 3 6 30.50 1033 10 16 0.00 0.00
2:52 pm 14:52 Sunny 58 14.4 22 -5.6 25 25 VRB 6 9 30.47 1032 10 16 0.00 0.00
3:52 pm 15:52 Sunny 59 15 19 -7.2 21 21 ENE 8 13 30.44 1031 10 16 0.00 0.00
4:52 pm 16:52 Sunny 60 15.6 19 -7.2 20 20 NE 7 11 30.42 1030 10 16 0.00 0.00
5:52 pm 17:52 Sunny 60 15.6 19 -7.2 20 20 NE 10 17 30.41 1030 10 16 0.00 0.00
6:52 pm 18:52 Sunny 58 14.4 18 -7.8 21 21 NE 8 13 30.41 1030 10 16 0.00 0.00
7:52 pm 19:52 Clear 55 12.8 20 -6.7 25 25 ENE 8 13 30.42 1030 10 16 0.00 0.00
8:52 pm 20:52 Clear 52 11.1 20 -6.7 28 28 NE 7 11 30.41 1030 10 16 0.00 0.00
9:52 pm 21:52 Clear 49 9.4 23 -5 36 36 ENE 6 9 30.42 1030 10 16 0.00 0.00
10:52 pm 22:52 Clear 48 8.9 24 -4.4 39 39 ENE 6 9 30.42 1030 10 16 0.00 0.00
11:52 pm 23:52 Clear 45 7.2 24 -4.4 44 44 ENE 8 13 30.41 1030 10 16 0.00 0.00

Powered by AerisWeather